• In Moldova, Republic
  • List of Countries
  • For 7 days
  • Water Temperature
  • Satellite Maps
  • Weather Map
  • Weather Widgets
  • user-avatar
    Login

    Hourly Weather Salzburg

    Today, 16 August, Wednesday

    Time Temperature Precipitation Wind Pressure Humidity
    00:00 +12°C° 0 mm 1 mps 631 mmHg 79%
    01:00 +12°C° 0 mm 1 mps 631 mmHg 82%
    02:00 +11°C° 0.4 mm 1 mps 630 mmHg 84%
    03:00 +11°C° 0.4 mm 1 mps 630 mmHg 87%
    04:00 +11°C° 0.4 mm 1 mps 630 mmHg 90%
    05:00 +11°C° 0.8 mm 1 mps 631 mmHg 91%
    06:00 +12°C° 0.8 mm 1 mps 631 mmHg 92%
    07:00 +12°C° 0 mm 2 mps 632 mmHg 94%
    08:00 +13°C° 0.4 mm 2 mps 632 mmHg 92%
    09:00 +14°C° 0.4 mm 1 mps 632 mmHg 89%
    10:00 +15°C° 0.4 mm 1 mps 633 mmHg 86%
    11:00 +16°C° 0.5 mm 1 mps 633 mmHg 80%
    12:00 +18°C° 0.5 mm 1 mps 633 mmHg 75%
    13:00 +19°C° 0.5 mm 1 mps 633 mmHg 69%
    14:00 +19°C° 0.8 mm 1 mps 633 mmHg 72%
    15:00 +19°C° 0.8 mm 1 mps 633 mmHg 74%
    16:00 +18°C° 0.8 mm 1 mps 633 mmHg 76%
    17:00 +16°C° 0.5 mm 1 mps 632 mmHg 81%
    18:00 +14°C° 0.5 mm 1 mps 632 mmHg 86%
    19:00 +12°C° 0.5 mm 0 mps 631 mmHg 91%
    20:00 +12°C° 0.1 mm 1 mps 631 mmHg 92%
    21:00 +11°C° 0.1 mm 1 mps 631 mmHg 93%
    22:00 +10°C° 0.1 mm 1 mps 631 mmHg 94%
    23:00 +10°C° 0 mm 1 mps 631 mmHg 94%

    Tomorrow, 17 August, Thursday

    Time Temperature Precipitation Wind Pressure Humidity
    00:00 +10°C° 0 mm 1 mps 631 mmHg 93%
    01:00 +10°C° 0 mm 1 mps 631 mmHg 92%
    02:00 +10°C° 0 mm 1 mps 630 mmHg 91%
    03:00 +9°C° 0 mm 1 mps 630 mmHg 90%
    04:00 +9°C° 0 mm 1 mps 630 mmHg 90%
    05:00 +10°C° 0 mm 1 mps 630 mmHg 87%
    06:00 +11°C° 0 mm 1 mps 631 mmHg 85%
    07:00 +12°C° 0 mm 1 mps 631 mmHg 82%
    08:00 +15°C° 0 mm 1 mps 632 mmHg 71%
    09:00 +19°C° 0 mm 1 mps 633 mmHg 60%
    10:00 +19°C° 0 mm 0 mps 634 mmHg 48%
    11:00 +22°C° 0 mm 1 mps 634 mmHg 46%
    12:00 +23°C° 0 mm 1 mps 634 mmHg 44%
    13:00 +23°C° 0 mm 1 mps 634 mmHg 42%
    14:00 +23°C° 0 mm 1 mps 633 mmHg 45%
    15:00 +22°C° 0 mm 1 mps 633 mmHg 49%
    16:00 +22°C° 0 mm 1 mps 633 mmHg 52%
    17:00 +20°C° 0.1 mm 1 mps 632 mmHg 63%
    18:00 +18°C° 0.1 mm 1 mps 631 mmHg 74%
    19:00 +14°C° 0.1 mm 0 mps 631 mmHg 84%
    20:00 +14°C° 0 mm 1 mps 630 mmHg 86%
    21:00 +13°C° 0 mm 1 mps 630 mmHg 88%
    22:00 +12°C° 0 mm 1 mps 630 mmHg 89%
    23:00 +12°C° 0 mm 1 mps 630 mmHg 89%

    Day after tomorrow, 18 August, Friday

    Time Temperature Precipitation Wind Pressure Humidity
    00:00 +12°C° 0 mm 1 mps 630 mmHg 89%
    01:00 +11°C° 0 mm 1 mps 630 mmHg 89%
    02:00 +11°C° 0 mm 1 mps 630 mmHg 88%
    03:00 +11°C° 0 mm 1 mps 630 mmHg 88%
    04:00 +11°C° 0 mm 1 mps 629 mmHg 88%
    05:00 +12°C° 0 mm 1 mps 630 mmHg 85%
    06:00 +13°C° 0 mm 1 mps 630 mmHg 82%
    07:00 +14°C° 0 mm 1 mps 631 mmHg 80%
    08:00 +18°C° 0 mm 1 mps 631 mmHg 70%
    09:00 +20°C° 0 mm 1 mps 632 mmHg 60%
    10:00 +23°C° 0 mm 1 mps 633 mmHg 51%
    11:00 +24°C° 0 mm 1 mps 633 mmHg 49%
    12:00 +24°C° 0 mm 2 mps 633 mmHg 47%
    13:00 +25°C° 0 mm 2 mps 633 mmHg 45%
    14:00 +25°C° 0 mm 2 mps 632 mmHg 48%
    15:00 +24°C° 0 mm 2 mps 632 mmHg 51%
    16:00 +23°C° 0 mm 2 mps 631 mmHg 55%
    17:00 +20°C° 0.5 mm 2 mps 630 mmHg 64%
    18:00 +19°C° 0.5 mm 1 mps 629 mmHg 73%
    19:00 +16°C° 0.5 mm 1 mps 629 mmHg 82%
    20:00 +15°C° 0.7 mm 1 mps 629 mmHg 85%
    21:00 +14°C° 0.7 mm 1 mps 628 mmHg 88%
    22:00 +13°C° 0.7 mm 2 mps 628 mmHg 91%
    23:00 +13°C° 0.2 mm 2 mps 628 mmHg 92%

    19 August, Saturday

    Time Temperature Precipitation Wind Pressure Humidity
    00:00 +12°C° 0.2 mm 2 mps 628 mmHg 94%
    01:00 +12°C° 0.2 mm 2 mps 628 mmHg 95%
    02:00 +10°C° 1.3 mm 2 mps 628 mmHg 96%
    03:00 +10°C° 1.3 mm 2 mps 628 mmHg 97%
    04:00 +10°C° 1.3 mm 2 mps 628 mmHg 97%
    05:00 +9°C° 3 mm 2 mps 628 mmHg 97%
    06:00 +8°C° 3 mm 2 mps 628 mmHg 97%
    07:00 +8°C° 3 mm 2 mps 628 mmHg 97%
    08:00 +8°C° 1.8 mm 2 mps 628 mmHg 95%
    09:00 +9°C° 1.8 mm 1 mps 629 mmHg 94%
    10:00 +9°C° 1.8 mm 1 mps 629 mmHg 92%
    11:00 +10°C° 1 mm 1 mps 629 mmHg 89%
    12:00 +10°C° 1 mm 1 mps 629 mmHg 85%
    13:00 +11°C° 1 mm 1 mps 629 mmHg 81%
    14:00 +11°C° 0.4 mm 1 mps 629 mmHg 82%
    15:00 +11°C° 0.4 mm 1 mps 629 mmHg 83%
    16:00 +11°C° 0.4 mm 1 mps 630 mmHg 84%
    17:00 +10°C° 1.6 mm 2 mps 629 mmHg 88%
    18:00 +9°C° 1.6 mm 2 mps 629 mmHg 92%
    19:00 +8°C° 1.6 mm 2 mps 629 mmHg 96%
    20:00 +7°C° 1.4 mm 2 mps 629 mmHg 96%
    21:00 +7°C° 1.4 mm 2 mps 630 mmHg 97%
    22:00 +7°C° 1.4 mm 2 mps 630 mmHg 97%
    23:00 +6°C° 0.7 mm 2 mps 630 mmHg 97%

    20 August, Sunday

    Time Temperature Precipitation Wind Pressure Humidity
    00:00 +6°C° 0.7 mm 2 mps 630 mmHg 97%
    01:00 +6°C° 0.7 mm 2 mps 630 mmHg 97%
    02:00 +6°C° 0.5 mm 2 mps 630 mmHg 97%
    03:00 +6°C° 0.5 mm 2 mps 630 mmHg 97%
    04:00 +5°C° 0.5 mm 2 mps 630 mmHg 97%
    05:00 +5°C° 0.1 mm 2 mps 630 mmHg 96%
    06:00 +6°C° 0.1 mm 2 mps 630 mmHg 96%
    07:00 +6°C° 0.1 mm 2 mps 631 mmHg 95%
    08:00 +7°C° 0.1 mm 2 mps 631 mmHg 86%
    09:00 +8°C° 0.1 mm 2 mps 632 mmHg 78%
    10:00 +10°C° 0.1 mm 2 mps 632 mmHg 69%
    11:00 +10°C° 0.1 mm 2 mps 632 mmHg 66%
    12:00 +12°C° 0.1 mm 2 mps 632 mmHg 63%
    13:00 +12°C° 0.1 mm 2 mps 632 mmHg 60%
    14:00 +12°C° 0.1 mm 2 mps 632 mmHg 60%
    15:00 +13°C° 0.1 mm 2 mps 632 mmHg 60%
    16:00 +13°C° 0.1 mm 2 mps 632 mmHg 60%
    17:00 +10°C° 0 mm 2 mps 632 mmHg 69%
    18:00 +8°C° 0 mm 2 mps 632 mmHg 78%
    19:00 +8°C° 0 mm 1 mps 631 mmHg 87%
    20:00 +7°C° 0 mm 1 mps 631 mmHg 90%
    21:00 +6°C° 0 mm 1 mps 631 mmHg 92%
    22:00 +5°C° 0 mm 1 mps 631 mmHg 94%
    23:00 +5°C° 0 mm 1 mps 631 mmHg 94%

    21 August, Monday

    Time Temperature Precipitation Wind Pressure Humidity
    00:00 +4°C° 0 mm 1 mps 631 mmHg 93%
    01:00 +4°C° 0 mm 1 mps 630 mmHg 93%
    02:00 +4°C° 0 mm 1 mps 630 mmHg 92%
    03:00 +4°C° 0 mm 1 mps 630 mmHg 90%
    04:00 +3°C° 0 mm 1 mps 630 mmHg 89%
    05:00 +5°C° 0 mm 1 mps 630 mmHg 86%
    06:00 +6°C° 0 mm 1 mps 631 mmHg 82%
    07:00 +7°C° 0 mm 1 mps 631 mmHg 79%
    08:00 +10°C° 0 mm 1 mps 632 mmHg 66%
    09:00 +12°C° 0 mm 1 mps 633 mmHg 54%
    10:00 +15°C° 0 mm 1 mps 633 mmHg 42%
    11:00 +16°C° 0 mm 1 mps 633 mmHg 39%
    12:00 +18°C° 0 mm 1 mps 633 mmHg 36%
    13:00 +19°C° 0 mm 1 mps 633 mmHg 33%
    14:00 +19°C° 0 mm 1 mps 633 mmHg 35%
    15:00 +18°C° 0 mm 1 mps 633 mmHg 36%
    16:00 +18°C° 0 mm 1 mps 632 mmHg 38%
    17:00 +15°C° 0 mm 1 mps 632 mmHg 49%
    18:00 +12°C° 0 mm 1 mps 631 mmHg 60%
    19:00 +10°C° 0 mm 1 mps 630 mmHg 71%
    20:00 +9°C° 0 mm 1 mps 630 mmHg 70%
    21:00 +8°C° 0 mm 1 mps 629 mmHg 69%
    22:00 +8°C° 0 mm 1 mps 629 mmHg 68%
    23:00 +8°C° 0 mm 1 mps 629 mmHg 66%
    Show more